Weather History for KCKC - February, 2014

Change the Weather History Date:

Wednesday, February 12, 2014

  Actual Average Record
Temperature  
Mean Temperature 6 °F -  
Max Temperature 12 °F 20 °F 32 °F (2005)
Min Temperature 1 °F 4 °F -18 °F (2003)
Degree Days  
Heating Degree Days 58    
Moisture  
Dew Point -4 °F    
Average Humidity 62    
Maximum Humidity 85    
Minimum Humidity 41    
Precipitation  
Precipitation 0.00 in - - ()
Sea Level Pressure  
Sea Level Pressure 29.86 in    
Wind  
Wind Speed 6 mph (West)    
Max Wind Speed 13 mph    
Max Gust Speed 21 mph    
Visibility 8 miles    
Events Snow    
Averages and records for this station are not official NWS values.
T = Trace of Precipitation, MM = Missing Value Source: NWS Daily Summary

Daily Weather History Graph

Daily Weather History Graph

Search for Another Location

Airport or City:

Trip Planner

Search our weather history database for the weather conditions in past years. The results will help you decide how hot, cold, wet, or windy it might be!

Date:

Astronomy

Feb. 12, 2014 Rise Set
Actual Time 7:12 AM CST 5:19 PM CST
Civil Twilight 6:40 AM CST 5:51 PM CST
Nautical Twilight 6:04 AM CST 6:28 PM CST
Astronomical Twilight 5:28 AM CST 7:04 PM CST
Moon 3:30 PM CST (2/12) 5:33 AM CST (2/12)
Length of Visible Light 11h 11m
Length of Day
10h 07m
Waxing Gibbous, 95% of the Moon is Illuminated
Feb 12
Waxing Gibbous
Feb 14
Full
Feb 22
Last Quarter
Mar 1
New
Mar 8
First Quarter

Hourly Weather History & Observations

Time (CST) Temp. Windchill Dew Point Humidity Pressure Visibility Wind Dir Wind Speed Gust Speed Precip Events Conditions
12:13 AM 8.6 °F -4.7 °F 1.4 °F 73% 29.85 in 5.0 mi South 9.2 mph 16.1 mph N/A Snow Light Snow
12:33 AM 6.8 °F -3.5 °F 1.4 °F 79% 29.85 in 4.0 mi South 5.8 mph - N/A Snow Light Snow
12:53 AM 6.8 °F -3.5 °F 1.4 °F 79% 29.84 in 3.0 mi South 5.8 mph - N/A Snow Light Snow
1:14 AM 6.8 °F -6.9 °F 1.4 °F 79% 29.84 in 4.0 mi SSW 9.2 mph - N/A Snow Light Snow
1:33 AM 6.8 °F -4.8 °F 1.4 °F 79% 29.85 in 4.0 mi SSW 6.9 mph - N/A Snow Light Snow
1:54 AM 6.8 °F -5.9 °F 1.4 °F 79% 29.85 in 4.0 mi South 8.1 mph - N/A Snow Light Snow
2:13 AM 6.8 °F -4.8 °F 1.4 °F 79% 29.85 in 2.0 mi SSW 6.9 mph - N/A Snow Light Snow
2:33 AM 6.8 °F -4.8 °F 1.4 °F 79% 29.85 in 2.5 mi South 6.9 mph - N/A Snow Light Snow
2:53 AM 6.8 °F -3.5 °F 1.4 °F 79% 29.85 in 2.5 mi SSW 5.8 mph - N/A Snow Light Snow
3:14 AM 6.8 °F -3.5 °F 3.2 °F 85% 29.85 in 1.8 mi SSW 5.8 mph - N/A Snow Light Snow
3:33 AM 6.8 °F -2.0 °F 3.2 °F 85% 29.86 in 2.5 mi SSW 4.6 mph - N/A Snow Light Snow
3:53 AM 8.6 °F 2.0 °F 3.2 °F 79% 29.86 in 3.0 mi SSW 3.5 mph - N/A Snow Light Snow
4:13 AM 8.6 °F - 3.2 °F 79% 29.86 in 2.0 mi Calm Calm - N/A Snow Light Snow
4:33 AM 8.6 °F - 3.2 °F 79% 29.86 in 2.5 mi Calm Calm - N/A Snow Light Snow
4:53 AM 8.6 °F - 3.2 °F 79% 29.87 in 3.0 mi Calm Calm - N/A Snow Light Snow
5:14 AM 8.6 °F 0.1 °F 3.2 °F 79% 29.87 in 4.0 mi WSW 4.6 mph - N/A Snow Light Snow
5:33 AM 8.6 °F 2.0 °F 3.2 °F 79% 29.87 in 7.0 mi WSW 3.5 mph - N/A Snow Light Snow
5:54 AM 10.4 °F 0.8 °F 3.2 °F 73% 29.88 in 5.0 mi WSW 5.8 mph - N/A Snow Light Snow
6:13 AM 8.6 °F -1.3 °F 3.2 °F 79% 29.87 in 5.0 mi WSW 5.8 mph - N/A Snow Light Snow
6:33 AM 8.6 °F -5.5 °F 3.2 °F 79% 29.87 in 5.0 mi WSW 10.4 mph 16.1 mph N/A Snow Light Snow
6:54 AM 8.6 °F -3.7 °F 3.2 °F 79% 29.87 in 7.0 mi West 8.1 mph - N/A Snow Light Snow
7:14 AM 8.6 °F -4.7 °F 3.2 °F 79% 29.88 in 5.0 mi West 9.2 mph - N/A Snow Light Snow
7:33 AM 8.6 °F -2.6 °F 1.4 °F 73% 29.88 in 7.0 mi West 6.9 mph - N/A Snow Light Snow
7:53 AM 8.6 °F 0.1 °F 1.4 °F 73% 29.88 in 3.0 mi West 4.6 mph - N/A Snow Light Snow
8:14 AM 8.6 °F -2.6 °F -0.4 °F 67% 29.88 in 10.0 mi West 6.9 mph - N/A   Scattered Clouds
8:34 AM 8.6 °F -7.0 °F -2.2 °F 62% 29.89 in 10.0 mi WNW 12.7 mph 20.7 mph N/A   Clear
8:53 AM 6.8 °F -8.6 °F -2.2 °F 67% 29.89 in 10.0 mi WNW 11.5 mph 18.4 mph N/A   Clear
9:13 AM 6.8 °F -4.8 °F -4.0 °F 61% 29.89 in 10.0 mi West 6.9 mph - N/A   Clear
9:33 AM 6.8 °F -6.9 °F -5.8 °F 56% 29.89 in 10.0 mi WNW 9.2 mph 17.3 mph N/A   Clear
9:54 AM 6.8 °F -7.8 °F -5.8 °F 56% 29.90 in 10.0 mi NW 10.4 mph 17.3 mph N/A   Clear
10:13 AM 8.6 °F -5.5 °F -5.8 °F 52% 29.90 in 10.0 mi WNW 10.4 mph 16.1 mph N/A   Clear
10:33 AM 8.6 °F -5.5 °F -5.8 °F 52% 29.90 in 10.0 mi WNW 10.4 mph - N/A   Clear
10:54 AM 8.6 °F -4.7 °F -5.8 °F 52% 29.90 in 10.0 mi WNW 9.2 mph 17.3 mph N/A   Clear
11:13 AM 10.4 °F -2.4 °F -5.8 °F 48% 29.90 in 10.0 mi WNW 9.2 mph - N/A   Clear
11:33 AM 8.6 °F -5.5 °F -5.8 °F 52% 29.90 in 10.0 mi WNW 10.4 mph 17.3 mph N/A   Clear
11:53 AM 8.6 °F -5.5 °F -5.8 °F 52% 29.89 in 10.0 mi NW 10.4 mph - N/A   Clear
12:14 PM 10.4 °F -2.4 °F -5.8 °F 48% 29.89 in 10.0 mi West 9.2 mph - N/A   Clear
12:33 PM 10.4 °F 0.8 °F -5.8 °F 48% 29.88 in 10.0 mi WNW 5.8 mph - N/A   Clear
12:54 PM 10.4 °F 0.8 °F -5.8 °F 48% 29.88 in 10.0 mi West 5.8 mph - N/A   Clear
1:13 PM 10.4 °F 0.8 °F -5.8 °F 48% 29.88 in 10.0 mi West 5.8 mph - N/A   Clear
1:33 PM 12.2 °F 1.7 °F -7.6 °F 41% 29.87 in 10.0 mi WNW 6.9 mph - N/A   Clear
1:53 PM 12.2 °F 0.7 °F -7.6 °F 41% 29.87 in 10.0 mi WNW 8.1 mph - N/A   Clear
2:14 PM 12.2 °F 4.3 °F -7.6 °F 41% 29.87 in 10.0 mi WNW 4.6 mph - N/A   Clear
2:33 PM 12.2 °F -0.2 °F -7.6 °F 41% 29.86 in 10.0 mi West 9.2 mph - N/A   Clear
2:53 PM 12.2 °F 1.7 °F -7.6 °F 41% 29.86 in 10.0 mi WNW 6.9 mph - N/A   Clear
3:13 PM 10.4 °F -0.4 °F -7.6 °F 44% 29.86 in 10.0 mi WNW 6.9 mph - N/A   Clear
3:33 PM 10.4 °F 0.8 °F -7.6 °F 44% 29.86 in 10.0 mi WNW 5.8 mph - N/A   Clear
3:54 PM 10.4 °F 0.8 °F -7.6 °F 44% 29.85 in 10.0 mi WNW 5.8 mph - N/A   Clear
4:13 PM 10.4 °F 2.2 °F -7.6 °F 44% 29.86 in 10.0 mi West 4.6 mph - N/A   Clear
4:33 PM 8.6 °F 0.1 °F -7.6 °F 48% 29.86 in 10.0 mi West 4.6 mph - N/A   Clear
4:53 PM 6.8 °F -0.1 °F -7.6 °F 52% 29.86 in 10.0 mi WNW 3.5 mph - N/A   Clear
5:14 PM 5.0 °F -2.1 °F -7.6 °F 56% 29.86 in 10.0 mi WNW 3.5 mph - N/A   Clear
5:33 PM 5.0 °F -4.1 °F -7.6 °F 56% 29.87 in 10.0 mi WNW 4.6 mph - N/A   Clear
5:53 PM 3.2 °F -6.2 °F -9.4 °F 56% 29.88 in 10.0 mi WNW 4.6 mph - N/A   Scattered Clouds
6:14 PM 3.2 °F - -9.4 °F 56% 29.88 in 10.0 mi Calm Calm - N/A   Clear
6:33 PM 3.2 °F -9.1 °F -9.4 °F 56% 29.87 in 10.0 mi NW 6.9 mph - N/A   Clear
6:53 PM 3.2 °F -4.2 °F -9.4 °F 56% 29.87 in 10.0 mi NNW 3.5 mph - N/A   Clear
7:14 PM 3.2 °F -7.8 °F -9.4 °F 56% 29.87 in 10.0 mi NNW 5.8 mph - N/A   Scattered Clouds
7:33 PM 3.2 °F -6.2 °F -9.4 °F 56% 29.87 in 10.0 mi NNW 4.6 mph - N/A   Clear
7:53 PM 3.2 °F -6.2 °F -9.4 °F 56% 29.86 in 10.0 mi NNW 4.6 mph - N/A   Scattered Clouds
8:13 PM 1.4 °F -8.3 °F -9.4 °F 61% 29.85 in 10.0 mi North 4.6 mph - N/A   Scattered Clouds
8:33 PM 3.2 °F -6.2 °F -9.4 °F 56% 29.85 in 10.0 mi NNW 4.6 mph - N/A   Clear
8:53 PM 3.2 °F -6.2 °F -7.6 °F 61% 29.84 in 10.0 mi North 4.6 mph - N/A   Mostly Cloudy
9:14 PM 3.2 °F -4.2 °F -7.6 °F 61% 29.83 in 10.0 mi North 3.5 mph - N/A   Scattered Clouds
9:33 PM 3.2 °F - -7.6 °F 61% 29.83 in 10.0 mi Calm Calm - N/A   Scattered Clouds
9:54 PM 3.2 °F - -7.6 °F 61% 29.82 in 10.0 mi Calm Calm - N/A   Mostly Cloudy
10:13 PM 3.2 °F - -7.6 °F 61% 29.82 in 10.0 mi Calm Calm - N/A   Mostly Cloudy
10:33 PM 3.2 °F - -7.6 °F 61% 29.80 in 10.0 mi Calm Calm - N/A   Mostly Cloudy
10:54 PM 5.0 °F -2.1 °F -7.6 °F 56% 29.79 in 10.0 mi NE 3.5 mph - N/A   Scattered Clouds
11:14 PM 3.2 °F - -7.6 °F 61% 29.80 in 10.0 mi Calm Calm - N/A   Scattered Clouds
11:33 PM 3.2 °F - -7.6 °F 61% 29.80 in 10.0 mi Calm Calm - N/A   Scattered Clouds
11:54 PM 6.8 °F -2.0 °F -5.8 °F 56% 29.79 in 10.0 mi East 4.6 mph - N/A   Mostly Cloudy